Regional Weather Roundup
Issued by NWS

Home | Current Version | Previous Version | Graphics & Text | Print | Product List | Glossary On
Versions: 1 2 3 4 5 6 7 8 9 10 11 12 13 14 15 16 17 18 19 20 21 22 23 24 25 26 27 28 29 30 31 32 33 34 35 36 37 38 39 40 41 42 43 44 45 46 47 48 49 50
811
ASUS43 KFSD 041002
RWRSD

WEATHER ROUNDUP FOR SOUTH DAKOTA
NATIONAL WEATHER SERVICE SIOUX FALLS SD
400 AM CST SUN DEC 04 2016

NOTE: "FAIR" INDICATES FEW OR NO CLOUDS BELOW 12,000 FEET WITH NO
SIGNIFICANT WEATHER AND/OR OBSTRUCTIONS TO VISIBILITY.


SDZ001>005-009-010-012>017-041100-
NORTHWEST AND NORTH CENTRAL SOUTH DAKOTA

CITY           SKY/WX    TMP DP  RH WIND       PRES   REMARKS
BUFFALO          N/A     27  21  78 W12       29.78S WCI  17
FAITH            N/A     27  24  89 W14       29.85S WCI  16
MOBRIDGE       CLEAR     30  24  78 W8        29.79F WCI  22
$$

SDZ012>016-024>037-041>051-057-063-072>074-041100-
SOUTHWEST AND SOUTH CENTRAL SOUTH DAKOTA

CITY           SKY/WX    TMP DP  RH WIND       PRES   REMARKS
RAPID CTY ARPT CLEAR     26  20  77 SW7       29.90F WCI  18
PIERRE         CLEAR     31  25  78 W14       29.86S WCI  21
CUSTER         CLEAR     24  15  68 W8        29.88S WCI  15
ELLSWORTH AFB  PTCLDY    28  22  79 W12       29.88F WCI  17
PHILIP         CLEAR     27  22  81 NW6       29.90S WCI  20
PINE RIDGE     CLOUDY    30  20  66 W3        29.95S
SPEARFISH      CLOUDY    34  19  55 W14G21    29.90R WCI  24
WINNER         FAIR      31  24  75 W7        29.90F WCI  24
$$

SDZ004>011-016>023-039-040-041100-
NORTHEAST SOUTH DAKOTA

CITY           SKY/WX    TMP DP  RH WIND       PRES   REMARKS
ABERDEEN       CLOUDY    29  25  85 SW9       29.82F WCI  20
WATERTOWN      CLOUDY    32  31  96 S13       29.83F WCI  22
SISSETON         N/A     35  32  88 S12       29.82F WCI  27
$$

SDZ017-020-022-023-036>040-048>070-041100-
SOUTHEAST SOUTH DAKOTA

CITY           SKY/WX    TMP DP  RH WIND       PRES   REMARKS
SIOUX FALLS    CLOUDY    34  33  96 SW9       29.91F WCI  27
HURON          CLOUDY    29  28  96 S8        29.87F WCI  21
CHAMBERLAIN    CLEAR     31  27  84 W7        29.89S WCI  24
MITCHELL       MOCLDY    30  27  88 SW8       29.90F WCI  22
YANKTON        CLEAR     30  28  93 SE7       29.92F WCI  23
$$

ABBREVIATIONS USED IN REMARKS
   TC - TEMPERATURE IN CELSIUS
  WCI - WIND CHILL INDEX
   HX - HEAT INDEX
  VSB - VISIBILITY





USA.gov is the U.S. government's official web portal to all federal, state and local government web resources and services.